Llano, CA

12:35 AM PST on February 08, 2016 (GMT -0800)
Palmdale - Butte

Weather History for KGXA - October, 2013

Change the Weather History Date:

Wednesday, October 23, 2013

  Actual Average (KPMD) Record (KPMD)
Temperature  
Mean Temperature 64 °F 61 °F  
Max Temperature 80 °F 76 °F 92 °F (1959)
Min Temperature 47 °F 46 °F 30 °F (1953)
Degree Days  
Heating Degree Days 2 5  
Month to date heating degree days 64  
Since 1 July heating degree days 76  
Cooling Degree Days 0 1  
Month to date cooling degree days 55  
Year to date cooling degree days 1812  
Growing Degree Days 14 (Base 50)    
Moisture  
Dew Point 16 °F    
Average Humidity 17    
Maximum Humidity 28    
Minimum Humidity 9    
Precipitation  
Precipitation 0.00 in 0.02 in 0.58 in (1987)
Month to date precipitation 0.41  
Year to date precipitation 6.26  
Snow  
Snow 0.00 in - 0.00 in (1973)
Month to date snowfall  
Since 1 July snowfall  
Since 1 September snowfall  
Snow Depth -    
Sea Level Pressure  
Sea Level Pressure 29.92 in    
Wind  
Wind Speed 5 mph (SSE)    
Max Wind Speed 10 mph    
Max Gust Speed 14 mph    
Visibility 10 miles    
Events      
T = Trace of Precipitation, MM = Missing Value Source: NWS Daily Summary

Daily Weather History Graph

Daily Weather History Graph

Search for Another Location

Airport or City:

Trip Planner

Search our weather history database for the weather conditions in past years. The results will help you decide how hot, cold, wet, or windy it might be!

Date:

Astronomy

Oct. 23, 2013 Rise Set
Actual Time 7:03 AM PDT 6:06 PM PDT
Civil Twilight 6:37 AM PDT 6:31 PM PDT
Nautical Twilight 6:08 AM PDT 7:01 PM PDT
Astronomical Twilight 5:38 AM PDT 7:30 PM PDT
Moon 9:47 PM PDT (10/23) 11:17 AM PDT (10/23)
Length of Visible Light 11h 54m
Length of Day
11h 02m
Waning Gibbous, 78% of the Moon is Illuminated
Oct 23
Waning Gibbous
Oct 26
Last Quarter
Nov 3
New
Nov 9
First Quarter
Nov 17
Full

Hourly Weather History & Observations

Time (PDT) Temp. Dew Point Humidity Pressure Visibility Wind Dir Wind Speed Gust Speed Precip Events Conditions
12:55 AM 53.2 °F 14.2 °F 21% 29.93 in 10.0 mi SSW 4.6 mph - N/A   Mostly Cloudy
1:55 AM 54.5 °F 14.9 °F 21% 29.92 in 10.0 mi South 4.6 mph - N/A   Mostly Cloudy
2:55 AM 52.3 °F 14.2 °F 22% 29.91 in 10.0 mi South 4.6 mph - N/A   Scattered Clouds
3:55 AM 50.0 °F 14.5 °F 24% 29.91 in 10.0 mi Variable 5.8 mph - N/A   Scattered Clouds
4:55 AM 48.6 °F 14.7 °F 26% 29.93 in 10.0 mi Variable 5.8 mph - N/A   Partly Cloudy
5:55 AM 47.3 °F 15.1 °F 28% 29.94 in 10.0 mi Variable 5.8 mph - N/A   Clear
6:55 AM 47.5 °F 15.6 °F 28% 29.97 in 10.0 mi South 5.8 mph - N/A   Clear
7:55 AM 49.8 °F 16.3 °F 26% 29.98 in 10.0 mi Variable 4.6 mph - N/A   Clear
8:55 AM 63.3 °F 15.8 °F 16% 29.96 in 10.0 mi Calm Calm - N/A   Clear
9:55 AM 66.4 °F 16.5 °F 15% 29.96 in 10.0 mi West 2.3 mph - N/A   Clear
10:55 AM 71.8 °F 16.9 °F 12% 29.95 in 10.0 mi WNW 1.2 mph - N/A   Clear
11:55 AM 74.5 °F 18.0 °F 12% 29.93 in 10.0 mi Variable 4.6 mph - N/A   Clear
12:55 PM 77.9 °F 17.6 °F 10% 29.91 in 10.0 mi ENE 10.4 mph 13.8 mph N/A   Clear
1:55 PM 79.3 °F 18.0 °F 10% 29.88 in 10.0 mi Variable 6.9 mph - N/A   Clear
2:55 PM 80.1 °F 17.8 °F 10% 29.86 in 10.0 mi NE 9.2 mph 13.8 mph N/A   Clear
3:55 PM 79.5 °F 15.8 °F 9% 29.86 in 10.0 mi ESE 3.5 mph 13.8 mph N/A   Clear
4:55 PM 78.6 °F 17.4 °F 10% 29.87 in 10.0 mi Variable 3.5 mph - N/A   Clear
5:55 PM 76.6 °F 16.7 °F 10% 29.87 in 10.0 mi NE 5.8 mph - N/A   Clear
6:55 PM 69.6 °F 15.6 °F 13% 29.91 in 10.0 mi East 3.5 mph - N/A   Clear
7:55 PM 63.0 °F 12.7 °F 14% 29.93 in 10.0 mi SSE 4.6 mph - N/A   Clear
8:55 PM 60.4 °F 13.8 °F 16% 29.90 in 10.0 mi Variable 6.9 mph - N/A   Clear
9:55 PM 59.2 °F 14.5 °F 17% 29.91 in 10.0 mi Variable 2.3 mph - N/A   Clear
10:55 PM 54.9 °F 14.2 °F 20% 29.91 in 10.0 mi South 5.8 mph - N/A   Clear
11:55 PM 54.9 °F 14.7 °F 21% 29.90 in 10.0 mi South 5.8 mph - N/A   Clear